Location: Les Jeannots
(43.2262°N, 5.5774°E)
Time: 02:53:40
(UTC+00:00)

Cosmos 332 Rocket - Pass Details

Date: 05 July 2020
Orbit: 682 x 703 km, 74.0° (Epoch: 04 August)

Event Time Altitude Azimuth Distance (km) Brightness Sun altitude
Rises 23:13:34 0° 344° (NNW) 3,055 8.5 -23.8°
Reaches altitude 10° 23:15:57 10° 350° (N) 2,135 7.4 -23.8°
Maximum altitude 23:20:37 49° 66° (ENE) 877 4.3 -23.9°
Enters shadow 23:21:28 44° 99° (E) 945 4.3 -23.9°
